Year,Month,Day,Hour,Minute,Value (Times are PST for windspeed in km/hr)
2010,05,03,00,00,4.60
2010,05,03,00,01,5.30
2010,05,03,00,02,6.20
2010,05,03,00,03,5.10
2010,05,03,00,04,5.40
2010,05,03,00,05,7.20
2010,05,03,00,06,3.10
2010,05,03,00,07,2.20
2010,05,03,00,08,4.90
2010,05,03,00,09,5.00
2010,05,03,00,10,4.30
2010,05,03,00,11,7.60
2010,05,03,00,12,5.30
2010,05,03,00,13,4.20
2010,05,03,00,18,6.60
2010,05,03,00,19,8.20
2010,05,03,00,20,7.10
2010,05,03,00,21,6.60
2010,05,03,00,22,4.30
2010,05,03,00,23,8.00
2010,05,03,00,24,6.30
2010,05,03,00,25,4.80
2010,05,03,00,26,7.50
2010,05,03,00,27,9.80
2010,05,03,00,28,9.80
2010,05,03,00,29,8.50
2010,05,03,00,30,7.10
2010,05,03,00,31,9.50
2010,05,03,00,32,8.10
2010,05,03,00,33,7.80
2010,05,03,00,34,9.00
2010,05,03,00,35,5.60
2010,05,03,00,36,5.30
2010,05,03,00,37,7.20
2010,05,03,00,38,8.80
2010,05,03,00,39,6.10
2010,05,03,00,40,8.10
2010,05,03,00,41,13.10
2010,05,03,00,42,10.50
2010,05,03,00,43,7.80
2010,05,03,00,44,8.80
2010,05,03,00,45,7.50
2010,05,03,00,46,13.00
2010,05,03,00,47,12.30
2010,05,03,00,48,15.80
2010,05,03,00,49,8.60
2010,05,03,00,50,8.40
2010,05,03,00,51,11.60
2010,05,03,00,52,10.10
2010,05,03,00,53,11.90
2010,05,03,00,54,13.70
2010,05,03,00,55,11.90
2010,05,03,00,56,13.80
2010,05,03,00,57,12.10
2010,05,03,00,58,12.20
2010,05,03,00,59,9.70
2010,05,03,01,00,10.50
2010,05,03,01,01,9.70
2010,05,03,01,02,8.90
2010,05,03,01,03,9.10
2010,05,03,01,04,13.00
2010,05,03,01,05,14.00
2010,05,03,01,06,11.90
2010,05,03,01,07,16.30
2010,05,03,01,08,11.40
2010,05,03,01,09,13.40
2010,05,03,01,10,13.60
2010,05,03,01,11,13.00
2010,05,03,01,12,14.60
2010,05,03,01,13,14.90
2010,05,03,01,14,16.60
2010,05,03,01,15,14.30
2010,05,03,01,16,15.50
2010,05,03,01,17,16.40
2010,05,03,01,18,16.50
2010,05,03,01,19,18.40
2010,05,03,01,20,22.40
2010,05,03,01,21,13.20
2010,05,03,01,22,17.90
2010,05,03,01,23,27.30
2010,05,03,01,24,18.40
2010,05,03,01,25,21.20
2010,05,03,01,26,24.60
2010,05,03,01,27,22.00
2010,05,03,01,28,24.70
2010,05,03,01,29,20.60
2010,05,03,01,30,25.70
2010,05,03,01,31,22.30
2010,05,03,01,32,18.20
2010,05,03,01,33,25.40
2010,05,03,01,34,17.80
2010,05,03,01,35,35.80
2010,05,03,01,36,26.70
2010,05,03,01,37,23.00
2010,05,03,01,38,27.80
2010,05,03,01,39,20.60
2010,05,03,01,40,24.10
2010,05,03,01,41,30.00
2010,05,03,01,42,22.10
2010,05,03,01,43,28.00
2010,05,03,01,44,32.10
2010,05,03,01,45,29.70
2010,05,03,01,46,25.90
2010,05,03,01,47,31.90
2010,05,03,01,48,20.80
2010,05,03,01,49,28.20
2010,05,03,01,50,21.90
2010,05,03,01,51,30.50
2010,05,03,01,52,27.00
2010,05,03,01,53,20.80
2010,05,03,01,54,26.90
2010,05,03,01,55,29.50
2010,05,03,01,56,33.90
2010,05,03,01,57,24.00
2010,05,03,01,58,26.90
2010,05,03,01,59,28.10
2010,05,03,02,00,36.30
2010,05,03,02,01,27.20
2010,05,03,02,02,28.70
2010,05,03,02,03,34.10
2010,05,03,02,04,30.20
2010,05,03,02,05,35.80
2010,05,03,02,06,36.80
2010,05,03,02,07,34.00
2010,05,03,02,08,35.40
2010,05,03,02,09,31.50
2010,05,03,02,10,29.40
2010,05,03,02,11,33.70
2010,05,03,02,12,36.30
2010,05,03,02,13,19.10
2010,05,03,02,14,32.20
2010,05,03,02,15,25.20
2010,05,03,02,16,24.40
2010,05,03,02,17,23.20
2010,05,03,02,18,29.70
2010,05,03,02,19,28.70
2010,05,03,02,20,27.50
2010,05,03,02,21,30.00
2010,05,03,02,22,31.20
2010,05,03,02,23,32.40
2010,05,03,02,24,26.80
2010,05,03,02,25,37.70
2010,05,03,02,26,32.70
2010,05,03,02,27,38.90
2010,05,03,02,28,35.70
2010,05,03,02,29,31.30
2010,05,03,02,30,29.60
2010,05,03,02,31,20.10
2010,05,03,02,32,24.10
2010,05,03,02,33,31.30
2010,05,03,02,34,35.30
2010,05,03,02,35,29.70
2010,05,03,02,36,20.60
2010,05,03,02,37,23.80
2010,05,03,02,38,32.20
2010,05,03,02,39,25.20
2010,05,03,02,40,24.00
2010,05,03,02,41,27.80
2010,05,03,02,42,15.00
2010,05,03,02,43,25.80
2010,05,03,02,44,33.50
2010,05,03,02,45,32.30
2010,05,03,02,46,31.00
2010,05,03,02,47,20.60
2010,05,03,02,48,22.50
2010,05,03,02,49,16.40
2010,05,03,02,50,24.60
2010,05,03,02,51,29.80
2010,05,03,02,52,20.50
2010,05,03,02,53,22.60
2010,05,03,02,54,18.80
2010,05,03,02,55,22.90
2010,05,03,02,56,21.30
2010,05,03,02,57,18.50
2010,05,03,02,58,18.80
2010,05,03,02,59,18.20
2010,05,03,03,00,22.50
2010,05,03,03,01,27.20
2010,05,03,03,02,27.60
2010,05,03,03,03,23.40
2010,05,03,03,04,30.20
2010,05,03,03,05,20.60
2010,05,03,03,06,25.90
2010,05,03,03,07,29.60
2010,05,03,03,08,25.70
2010,05,03,03,09,31.00
2010,05,03,03,10,26.00
2010,05,03,03,11,30.70
2010,05,03,03,12,16.70
2010,05,03,03,13,22.80
2010,05,03,03,14,20.00
2010,05,03,03,15,21.50
2010,05,03,03,16,17.60
2010,05,03,03,17,26.10
2010,05,03,03,18,27.90
2010,05,03,03,19,15.10
2010,05,03,03,20,27.80
2010,05,03,03,21,18.30
2010,05,03,03,22,17.50
2010,05,03,03,23,29.80
2010,05,03,03,24,26.80
2010,05,03,03,25,18.50
2010,05,03,03,26,25.80
2010,05,03,03,27,25.20
2010,05,03,03,28,28.90
2010,05,03,03,29,33.90
2010,05,03,03,30,32.60
2010,05,03,03,31,27.80
2010,05,03,03,32,22.50
2010,05,03,03,33,27.60
2010,05,03,03,34,29.10
2010,05,03,03,35,25.50
2010,05,03,03,36,29.40
2010,05,03,03,37,27.90
2010,05,03,03,38,32.80
2010,05,03,03,39,31.20
2010,05,03,03,40,21.20
2010,05,03,03,41,38.80
2010,05,03,03,42,29.90
2010,05,03,03,43,30.90
2010,05,03,03,44,24.90
2010,05,03,03,45,29.60
2010,05,03,03,46,36.60
2010,05,03,03,47,34.40
2010,05,03,03,48,30.90
2010,05,03,03,49,33.00
2010,05,03,03,50,24.90
2010,05,03,03,51,32.70
2010,05,03,03,52,32.50
2010,05,03,03,53,23.90
2010,05,03,03,54,25.20
2010,05,03,03,55,24.90
2010,05,03,03,56,33.10
2010,05,03,03,57,21.70
2010,05,03,03,58,31.50
2010,05,03,03,59,34.00
2010,05,03,04,00,36.70
2010,05,03,04,01,29.90
2010,05,03,04,02,39.40
2010,05,03,04,03,35.80
2010,05,03,04,04,34.00
2010,05,03,04,05,26.60
2010,05,03,04,06,17.90
2010,05,03,04,07,30.50
2010,05,03,04,08,26.50
2010,05,03,04,09,24.10
2010,05,03,04,10,40.00
2010,05,03,04,11,27.10
2010,05,03,04,12,28.60
2010,05,03,04,13,38.20
2010,05,03,04,14,31.30
2010,05,03,04,15,24.10
2010,05,03,04,16,34.20
2010,05,03,04,17,27.90
2010,05,03,04,18,25.30
2010,05,03,04,19,24.40
2010,05,03,04,20,15.90
2010,05,03,04,21,21.60
2010,05,03,04,22,20.10
2010,05,03,04,23,33.00
2010,05,03,04,24,31.50
2010,05,03,04,25,34.10
2010,05,03,04,26,29.60
2010,05,03,04,27,34.80
2010,05,03,04,28,19.80
2010,05,03,04,29,26.90
2010,05,03,04,30,29.40
2010,05,03,04,31,31.80
2010,05,03,04,32,20.40
2010,05,03,04,33,19.60
2010,05,03,04,34,23.60
2010,05,03,04,35,32.90
2010,05,03,04,36,26.70
2010,05,03,04,37,19.90
2010,05,03,04,38,22.60
2010,05,03,04,39,32.00
2010,05,03,04,40,25.30
2010,05,03,04,41,37.90
2010,05,03,04,42,25.40
2010,05,03,04,43,24.90
2010,05,03,04,44,19.30
2010,05,03,04,45,32.20
2010,05,03,04,46,27.00
2010,05,03,04,47,31.40
2010,05,03,04,48,33.40
2010,05,03,04,49,34.40
2010,05,03,04,50,28.80
2010,05,03,04,51,18.40
2010,05,03,04,52,22.30
2010,05,03,04,53,27.90
2010,05,03,04,54,21.80
2010,05,03,04,55,12.80
2010,05,03,04,56,30.40
2010,05,03,04,57,32.00
2010,05,03,04,58,24.90
2010,05,03,04,59,26.00
2010,05,03,05,00,35.90
2010,05,03,05,01,32.70
2010,05,03,05,02,27.40
2010,05,03,05,03,26.80
2010,05,03,05,04,31.20
2010,05,03,05,05,35.60
2010,05,03,05,06,22.60
2010,05,03,05,07,24.90
2010,05,03,05,08,23.40
2010,05,03,05,09,18.90
2010,05,03,05,10,26.70
2010,05,03,05,11,31.50
2010,05,03,05,12,27.70
2010,05,03,05,13,14.70
2010,05,03,05,14,23.70
2010,05,03,05,15,25.50
2010,05,03,05,16,17.60
2010,05,03,05,17,18.30
2010,05,03,05,18,24.00
2010,05,03,05,19,31.30
2010,05,03,05,20,32.10
2010,05,03,05,21,25.40
2010,05,03,05,22,22.70
2010,05,03,05,23,24.80
2010,05,03,05,24,26.20
2010,05,03,05,25,27.80
2010,05,03,05,26,23.90
2010,05,03,05,27,26.50
2010,05,03,05,28,27.90
2010,05,03,05,29,24.10
2010,05,03,05,30,22.70
2010,05,03,05,31,29.30
2010,05,03,05,32,24.30
2010,05,03,05,33,18.50
2010,05,03,05,34,29.40
2010,05,03,05,35,26.40
2010,05,03,05,36,22.40
2010,05,03,05,37,23.80
2010,05,03,05,38,16.40
2010,05,03,05,39,14.20
2010,05,03,05,40,18.10
2010,05,03,05,41,17.30
2010,05,03,05,42,14.40
2010,05,03,05,43,7.20
2010,05,03,05,44,9.90
2010,05,03,05,45,14.90
2010,05,03,05,46,12.90
2010,05,03,05,47,14.20
2010,05,03,05,48,9.30
2010,05,03,05,49,23.20
2010,05,03,05,50,33.00
2010,05,03,05,51,24.10
2010,05,03,05,52,27.40
2010,05,03,05,53,37.70
2010,05,03,05,54,31.60
2010,05,03,05,55,20.20
2010,05,03,05,56,29.60
2010,05,03,05,57,35.20
2010,05,03,05,58,38.10
2010,05,03,05,59,22.60
2010,05,03,06,00,27.60
2010,05,03,06,01,32.20
2010,05,03,06,02,27.70
2010,05,03,06,03,25.70
2010,05,03,06,04,24.50
2010,05,03,06,05,30.10
2010,05,03,06,06,27.00
2010,05,03,06,07,25.50
2010,05,03,06,08,27.30
2010,05,03,06,09,19.30
2010,05,03,06,10,34.50
2010,05,03,06,11,21.40
2010,05,03,06,12,22.60
2010,05,03,06,13,27.90
2010,05,03,06,14,27.90
2010,05,03,06,15,23.20
2010,05,03,06,16,24.20
2010,05,03,06,17,21.90
2010,05,03,06,18,25.80
2010,05,03,06,19,28.70
2010,05,03,06,20,25.70
2010,05,03,06,21,21.20
2010,05,03,06,22,24.20
2010,05,03,06,23,29.00
2010,05,03,06,24,20.70
2010,05,03,06,25,22.50
2010,05,03,06,26,21.10
2010,05,03,06,27,23.00
2010,05,03,06,28,28.20
2010,05,03,06,29,20.80
2010,05,03,06,30,26.30
2010,05,03,06,31,23.70
2010,05,03,06,32,25.40
2010,05,03,06,33,21.40
2010,05,03,06,34,16.10
2010,05,03,06,35,27.00
2010,05,03,06,36,27.70
2010,05,03,06,37,32.10
2010,05,03,06,38,18.90
2010,05,03,06,39,25.10
2010,05,03,06,40,25.30
2010,05,03,06,41,33.10
2010,05,03,06,42,33.90
2010,05,03,06,43,24.80
2010,05,03,06,44,21.40
2010,05,03,06,45,25.80
2010,05,03,06,46,27.80
2010,05,03,06,47,35.10
2010,05,03,06,48,20.90
2010,05,03,06,49,30.80
2010,05,03,06,50,30.00
2010,05,03,06,51,24.10
2010,05,03,06,52,26.70
2010,05,03,06,53,30.70
2010,05,03,06,54,34.00
2010,05,03,06,55,31.70
2010,05,03,06,56,23.10
2010,05,03,06,57,27.00
2010,05,03,06,58,30.20
2010,05,03,06,59,33.10
2010,05,03,07,00,32.10
2010,05,03,07,01,18.90
2010,05,03,07,02,30.00
2010,05,03,07,03,20.50
2010,05,03,07,04,27.60
2010,05,03,07,05,25.60
2010,05,03,07,06,24.10
2010,05,03,07,07,24.00
2010,05,03,07,08,26.30
2010,05,03,07,09,29.80
2010,05,03,07,10,30.70
2010,05,03,07,11,25.20
2010,05,03,07,12,38.70
2010,05,03,07,13,32.30
2010,05,03,07,14,30.90
2010,05,03,07,15,34.00
2010,05,03,07,16,36.90
2010,05,03,07,17,34.20
2010,05,03,07,18,24.10
2010,05,03,07,19,31.20
2010,05,03,07,20,24.20
2010,05,03,07,21,27.90
2010,05,03,07,22,30.90
2010,05,03,07,23,34.00
2010,05,03,07,24,23.90
2010,05,03,07,25,21.70
2010,05,03,07,26,25.80
2010,05,03,07,27,31.50
2010,05,03,07,28,24.50
2010,05,03,07,29,23.80
2010,05,03,07,30,26.50
2010,05,03,07,31,29.70
2010,05,03,07,32,32.40
2010,05,03,07,33,26.30
2010,05,03,07,34,23.30
2010,05,03,07,35,24.40
2010,05,03,07,36,28.50
2010,05,03,07,37,17.30
2010,05,03,07,38,14.70
2010,05,03,07,39,19.90
2010,05,03,07,40,17.00
2010,05,03,07,41,19.60
2010,05,03,07,42,17.90
2010,05,03,07,43,32.70
2010,05,03,07,44,42.20
2010,05,03,07,45,33.80
2010,05,03,07,46,20.00
2010,05,03,07,47,28.10
2010,05,03,07,48,29.10
2010,05,03,07,49,17.30
2010,05,03,07,50,24.10
2010,05,03,07,51,30.10
2010,05,03,07,52,10.30
2010,05,03,07,53,13.30
2010,05,03,07,54,19.30
2010,05,03,07,55,15.40
2010,05,03,07,56,21.60
2010,05,03,07,57,22.90
2010,05,03,07,58,25.00
2010,05,03,07,59,36.40
2010,05,03,08,00,24.50
2010,05,03,08,01,19.60
2010,05,03,08,02,31.40
2010,05,03,08,03,21.10
2010,05,03,08,04,24.50
2010,05,03,08,05,32.40
2010,05,03,08,06,24.80
2010,05,03,08,07,19.70
2010,05,03,08,08,34.30
2010,05,03,08,09,32.10
2010,05,03,08,10,27.20
2010,05,03,08,11,34.10
2010,05,03,08,12,29.20
2010,05,03,08,13,30.70
2010,05,03,08,14,26.10
2010,05,03,08,15,30.70
2010,05,03,08,16,19.60
2010,05,03,08,17,26.20
2010,05,03,08,18,20.40
2010,05,03,08,19,30.70
2010,05,03,08,20,31.90
2010,05,03,08,21,16.20
2010,05,03,08,22,23.40
2010,05,03,08,23,23.50
2010,05,03,08,24,21.40
2010,05,03,08,25,29.00
2010,05,03,08,26,22.40
2010,05,03,08,27,35.60
2010,05,03,08,28,32.90
2010,05,03,08,29,29.80
2010,05,03,08,30,34.80
2010,05,03,08,31,33.30
2010,05,03,08,32,36.40
2010,05,03,08,33,37.40
2010,05,03,08,34,39.60
2010,05,03,08,35,27.90
2010,05,03,08,36,21.30
2010,05,03,08,37,33.10
2010,05,03,08,38,28.10
2010,05,03,08,39,41.30
2010,05,03,08,40,34.00
2010,05,03,08,41,28.50
2010,05,03,08,42,23.80
2010,05,03,08,43,30.10
2010,05,03,08,44,39.50
2010,05,03,08,45,27.60
2010,05,03,08,46,22.90
2010,05,03,08,47,41.80
2010,05,03,08,48,21.00
2010,05,03,08,49,30.80
2010,05,03,08,50,24.40
2010,05,03,08,51,18.70
2010,05,03,08,52,27.60
2010,05,03,08,53,37.00
2010,05,03,08,54,27.80
2010,05,03,08,55,27.00
2010,05,03,08,56,27.80
2010,05,03,08,57,26.30
2010,05,03,08,58,24.70
2010,05,03,08,59,18.20
2010,05,03,09,00,22.60
2010,05,03,09,01,22.70
2010,05,03,09,02,19.60
2010,05,03,09,03,23.30
2010,05,03,09,04,27.80
2010,05,03,09,05,28.90
2010,05,03,09,06,28.30
2010,05,03,09,07,31.30
2010,05,03,09,08,29.40
2010,05,03,09,09,30.30
2010,05,03,09,10,26.90
2010,05,03,09,11,26.60
2010,05,03,09,12,23.80
2010,05,03,09,13,21.10
2010,05,03,09,14,32.40
2010,05,03,09,15,16.60
2010,05,03,09,16,30.20
2010,05,03,09,17,25.20
2010,05,03,09,18,26.60
2010,05,03,09,19,22.70
2010,05,03,09,20,24.70
2010,05,03,09,21,29.00
2010,05,03,09,22,18.30
2010,05,03,09,23,33.90
2010,05,03,09,24,31.50
2010,05,03,09,25,18.50
2010,05,03,09,26,18.00
2010,05,03,09,27,25.70
2010,05,03,09,28,19.50
2010,05,03,09,29,27.60
2010,05,03,09,30,29.80
2010,05,03,09,31,29.20
2010,05,03,09,32,29.20
2010,05,03,09,33,34.90
2010,05,03,09,34,20.40
2010,05,03,09,35,29.90
2010,05,03,09,36,25.10
2010,05,03,09,37,30.20
2010,05,03,09,38,34.00
2010,05,03,09,39,35.30
2010,05,03,09,40,23.30
2010,05,03,09,41,21.00
2010,05,03,09,42,31.00
2010,05,03,09,43,22.40
2010,05,03,09,44,27.70
2010,05,03,09,45,26.30
2010,05,03,09,46,18.30
2010,05,03,09,47,30.40
2010,05,03,09,48,32.90
2010,05,03,09,49,23.20
2010,05,03,09,50,19.60
2010,05,03,09,51,33.70
2010,05,03,09,52,29.20
2010,05,03,09,53,46.20
2010,05,03,09,54,33.40
2010,05,03,09,55,36.90
2010,05,03,09,56,29.40
2010,05,03,09,57,19.00
2010,05,03,09,58,20.80
2010,05,03,09,59,13.40
2010,05,03,10,00,17.90
2010,05,03,10,01,19.80
2010,05,03,10,02,23.80
2010,05,03,10,03,31.70
2010,05,03,10,04,30.20
2010,05,03,10,05,24.60
2010,05,03,10,06,28.60
2010,05,03,10,07,39.10
2010,05,03,10,08,36.30
2010,05,03,10,09,32.00
2010,05,03,10,10,30.50
2010,05,03,10,11,35.60
2010,05,03,10,12,31.00
2010,05,03,10,13,34.00
2010,05,03,10,14,27.70
2010,05,03,10,15,17.50
2010,05,03,10,16,16.00
2010,05,03,10,17,25.70
2010,05,03,10,18,30.10
2010,05,03,10,19,35.40
2010,05,03,10,20,35.20
2010,05,03,10,21,35.40
2010,05,03,10,22,35.20
2010,05,03,10,23,35.30
2010,05,03,10,24,39.30
2010,05,03,10,25,37.10
2010,05,03,10,26,35.20
2010,05,03,10,27,25.60
2010,05,03,10,28,25.70
2010,05,03,10,29,29.80
2010,05,03,10,30,36.40
2010,05,03,10,31,32.80
2010,05,03,10,32,19.90
2010,05,03,10,33,31.40
2010,05,03,10,34,22.80
2010,05,03,10,35,19.40
2010,05,03,10,36,24.70
2010,05,03,10,37,23.30
2010,05,03,10,38,20.50
2010,05,03,10,39,32.20
2010,05,03,10,40,20.20
2010,05,03,10,41,15.40
2010,05,03,10,42,31.60
2010,05,03,10,43,27.50
2010,05,03,10,44,23.60
2010,05,03,10,45,24.00
2010,05,03,10,46,29.50
2010,05,03,10,47,28.30
2010,05,03,10,48,20.50
2010,05,03,10,49,20.80
2010,05,03,10,50,22.30
2010,05,03,10,51,22.40
2010,05,03,10,52,31.50
2010,05,03,10,53,28.50
2010,05,03,10,54,32.00
2010,05,03,10,55,15.90
2010,05,03,10,56,26.00
2010,05,03,10,57,33.20
2010,05,03,10,58,23.70
2010,05,03,10,59,17.90
2010,05,03,11,00,27.50
2010,05,03,11,01,30.20
2010,05,03,11,02,31.60
2010,05,03,11,03,16.50
2010,05,03,11,04,22.00
2010,05,03,11,05,28.60
2010,05,03,11,06,17.50
2010,05,03,11,07,18.30
2010,05,03,11,08,33.30
2010,05,03,11,09,24.10
2010,05,03,11,10,23.50
2010,05,03,11,11,24.60
2010,05,03,11,12,23.30
2010,05,03,11,13,22.20
2010,05,03,11,14,25.30
2010,05,03,11,15,33.50
2010,05,03,11,16,22.60
2010,05,03,11,17,24.90
2010,05,03,11,18,20.10
2010,05,03,11,19,19.50
2010,05,03,11,20,24.60
2010,05,03,11,21,23.20
2010,05,03,11,22,24.20
2010,05,03,11,23,25.90
2010,05,03,11,24,17.50
2010,05,03,11,25,13.20
2010,05,03,11,26,15.90
2010,05,03,11,27,21.30
2010,05,03,11,28,20.00
2010,05,03,11,29,23.40
2010,05,03,11,30,25.60
2010,05,03,11,31,20.70
2010,05,03,11,32,27.40
2010,05,03,11,33,22.50
2010,05,03,11,34,24.90
2010,05,03,11,35,21.20
2010,05,03,11,36,21.00
2010,05,03,11,37,20.80
2010,05,03,11,38,18.90
2010,05,03,11,39,29.10
2010,05,03,11,40,34.80
2010,05,03,11,41,16.40
2010,05,03,11,42,24.40
2010,05,03,11,43,13.00
2010,05,03,11,44,16.20
2010,05,03,11,45,26.70
2010,05,03,11,46,11.90
2010,05,03,11,47,20.30
2010,05,03,11,48,32.50
2010,05,03,11,49,25.80
2010,05,03,11,50,25.10
2010,05,03,11,51,26.50
2010,05,03,11,52,27.40
2010,05,03,11,53,29.70
2010,05,03,11,54,26.50
2010,05,03,11,55,25.30
2010,05,03,11,56,28.80
2010,05,03,11,57,19.80
2010,05,03,11,58,17.20
2010,05,03,11,59,24.50
2010,05,03,12,00,20.40
2010,05,03,12,01,22.30
2010,05,03,12,02,21.30
2010,05,03,12,03,19.80
2010,05,03,12,04,17.40
2010,05,03,12,05,24.40
2010,05,03,12,06,22.60
2010,05,03,12,07,20.40
2010,05,03,12,08,21.50
2010,05,03,12,09,23.70
2010,05,03,12,10,35.30
2010,05,03,12,11,30.60
2010,05,03,12,12,22.70
2010,05,03,12,13,21.40
2010,05,03,12,14,20.50
2010,05,03,12,15,22.80
2010,05,03,12,16,19.10
2010,05,03,12,17,18.00
2010,05,03,12,18,20.70
2010,05,03,12,19,28.90
2010,05,03,12,20,22.40
2010,05,03,12,21,29.00
2010,05,03,12,22,24.40
2010,05,03,12,23,22.40
2010,05,03,12,24,18.50
2010,05,03,12,25,25.00
2010,05,03,12,26,27.40
2010,05,03,12,27,16.60
2010,05,03,12,28,18.70
2010,05,03,12,29,12.20
2010,05,03,12,30,16.60
2010,05,03,12,31,24.80
2010,05,03,12,32,23.80
2010,05,03,12,33,28.20
2010,05,03,12,34,28.80
2010,05,03,12,35,34.60
2010,05,03,12,36,32.30
2010,05,03,12,37,41.40
2010,05,03,12,38,14.60
2010,05,03,12,39,20.80
2010,05,03,12,40,28.90
2010,05,03,12,41,28.30
2010,05,03,12,42,39.00
2010,05,03,12,43,39.30
2010,05,03,12,44,34.30
2010,05,03,12,45,41.80
2010,05,03,12,46,33.00
2010,05,03,12,47,36.20
2010,05,03,12,48,26.20
2010,05,03,12,49,31.20
2010,05,03,12,50,24.60
2010,05,03,12,51,37.40
2010,05,03,12,52,25.90
2010,05,03,12,53,31.80
2010,05,03,12,54,29.00
2010,05,03,12,55,26.40
2010,05,03,12,56,13.40
2010,05,03,12,57,26.40
2010,05,03,12,58,29.80
2010,05,03,12,59,17.50
2010,05,03,13,00,19.50
2010,05,03,13,01,22.10
2010,05,03,13,02,34.70
2010,05,03,13,03,35.50
2010,05,03,13,04,38.80
2010,05,03,13,05,26.50
2010,05,03,13,06,35.90
2010,05,03,13,07,30.80
2010,05,03,13,08,30.00
2010,05,03,13,09,33.70
2010,05,03,13,10,35.60
2010,05,03,13,11,24.40
2010,05,03,13,12,22.80
2010,05,03,13,13,23.70
2010,05,03,13,14,35.90
2010,05,03,13,15,24.60
2010,05,03,13,16,31.60
2010,05,03,13,17,37.10
2010,05,03,13,18,31.40
2010,05,03,13,19,42.00
2010,05,03,13,20,36.40
2010,05,03,13,21,23.20
2010,05,03,13,22,40.70
2010,05,03,13,23,34.60
2010,05,03,13,24,32.80
2010,05,03,13,25,39.10
2010,05,03,13,26,28.50
2010,05,03,13,27,46.30
2010,05,03,13,28,24.10
2010,05,03,13,29,26.70
2010,05,03,13,30,22.50
2010,05,03,13,31,19.20
2010,05,03,13,32,20.70
2010,05,03,13,33,33.10
2010,05,03,13,34,26.90
2010,05,03,13,35,25.10
2010,05,03,13,36,23.30
2010,05,03,13,37,38.90
2010,05,03,13,38,31.50
2010,05,03,13,39,34.90
2010,05,03,13,40,37.10
2010,05,03,13,41,32.10
2010,05,03,13,42,26.40
2010,05,03,13,43,27.10
2010,05,03,13,44,21.10
2010,05,03,13,45,29.90
2010,05,03,13,46,33.00
2010,05,03,13,47,19.70
2010,05,03,13,48,23.00
2010,05,03,13,49,28.30
2010,05,03,13,50,35.60
2010,05,03,13,51,37.20
2010,05,03,13,52,36.40
2010,05,03,13,53,30.40
2010,05,03,13,54,38.60
2010,05,03,13,55,42.70
2010,05,03,13,56,28.60
2010,05,03,13,57,32.00
2010,05,03,13,58,36.30
2010,05,03,13,59,35.10
2010,05,03,14,00,39.70
2010,05,03,14,01,31.20
2010,05,03,14,02,23.40
2010,05,03,14,03,26.60
2010,05,03,14,04,30.10
2010,05,03,14,05,29.40
2010,05,03,14,06,25.10
2010,05,03,14,07,30.60
2010,05,03,14,08,36.10
2010,05,03,14,09,30.40
2010,05,03,14,10,28.50
2010,05,03,14,11,35.40
2010,05,03,14,12,26.70
2010,05,03,14,13,24.90
2010,05,03,14,14,34.80
2010,05,03,14,15,37.50
2010,05,03,14,16,33.50
2010,05,03,14,17,27.10
2010,05,03,14,18,26.20
2010,05,03,14,19,39.40
2010,05,03,14,20,32.80
2010,05,03,14,21,42.00
2010,05,03,14,22,31.80
2010,05,03,14,23,38.80
2010,05,03,14,24,27.10
2010,05,03,14,25,37.90
2010,05,03,14,26,34.60
2010,05,03,14,27,37.10
2010,05,03,14,28,31.60
2010,05,03,14,29,23.80
2010,05,03,14,30,33.70
2010,05,03,14,31,24.10
2010,05,03,14,32,35.60
2010,05,03,14,33,37.10
2010,05,03,14,34,41.00
2010,05,03,14,35,47.50
2010,05,03,14,36,37.90
2010,05,03,14,37,31.50
2010,05,03,14,38,27.90
2010,05,03,14,39,31.40
2010,05,03,14,40,31.30
2010,05,03,14,41,36.20
2010,05,03,14,42,39.30
2010,05,03,14,43,28.60
2010,05,03,14,44,17.60
2010,05,03,14,45,24.50
2010,05,03,14,46,36.60
2010,05,03,14,47,39.40
2010,05,03,14,48,33.80
2010,05,03,14,49,20.80
2010,05,03,14,50,25.40
2010,05,03,14,51,39.50
2010,05,03,14,52,24.80
2010,05,03,14,53,25.50
2010,05,03,14,54,24.30
2010,05,03,14,55,25.30
2010,05,03,14,56,31.70
2010,05,03,14,57,35.30
2010,05,03,14,58,36.40
2010,05,03,14,59,23.20
2010,05,03,15,00,20.70
2010,05,03,15,01,25.80
2010,05,03,15,02,23.90
2010,05,03,15,03,21.00
2010,05,03,15,04,24.10
2010,05,03,15,05,22.70
2010,05,03,15,06,26.90
2010,05,03,15,07,29.40
2010,05,03,15,08,24.90
2010,05,03,15,09,26.00
2010,05,03,15,10,25.70
2010,05,03,15,11,25.90
2010,05,03,15,12,32.70
2010,05,03,15,13,19.20
2010,05,03,15,14,20.80
2010,05,03,15,15,14.20
2010,05,03,15,16,17.30
2010,05,03,15,17,39.20
2010,05,03,15,18,23.10
2010,05,03,15,19,19.10
2010,05,03,15,20,24.00
2010,05,03,15,21,23.50
2010,05,03,15,22,16.40
2010,05,03,15,23,24.20
2010,05,03,15,24,33.80
2010,05,03,15,25,27.80
2010,05,03,15,26,22.90
2010,05,03,15,27,29.90
2010,05,03,15,28,16.80
2010,05,03,15,29,14.00
2010,05,03,15,30,31.30
2010,05,03,15,31,27.30
2010,05,03,15,32,30.80
2010,05,03,15,33,22.70
2010,05,03,15,34,19.50
2010,05,03,15,35,22.70
2010,05,03,15,36,15.20
2010,05,03,15,37,26.10
2010,05,03,15,38,31.10
2010,05,03,15,39,22.50
2010,05,03,15,40,17.50
2010,05,03,15,41,24.50
2010,05,03,15,42,21.40
2010,05,03,15,43,12.50
2010,05,03,15,44,22.80
2010,05,03,15,45,19.30
2010,05,03,15,46,18.90
2010,05,03,15,47,27.40
2010,05,03,15,48,20.60
2010,05,03,15,49,21.00
2010,05,03,15,50,14.10
2010,05,03,15,51,20.70
2010,05,03,15,52,25.60
2010,05,03,15,53,37.90
2010,05,03,15,54,15.00
2010,05,03,15,55,21.30
2010,05,03,15,56,14.80
2010,05,03,15,57,20.80
2010,05,03,15,58,18.10
2010,05,03,15,59,19.20
2010,05,03,16,00,20.00
2010,05,03,16,01,16.40
2010,05,03,16,02,16.50
2010,05,03,16,03,22.60
2010,05,03,16,04,24.30
2010,05,03,16,05,19.70
2010,05,03,16,06,19.40
2010,05,03,16,07,28.70
2010,05,03,16,08,31.20
2010,05,03,16,09,31.70
2010,05,03,16,10,24.40
2010,05,03,16,11,37.30
2010,05,03,16,12,27.40
2010,05,03,16,13,35.30
2010,05,03,16,14,18.80
2010,05,03,16,15,21.20
2010,05,03,16,16,19.10
2010,05,03,16,17,24.30
2010,05,03,16,18,23.00
2010,05,03,16,19,15.80
2010,05,03,16,20,12.70
2010,05,03,16,21,20.60
2010,05,03,16,22,19.10
2010,05,03,16,23,9.70
2010,05,03,16,24,10.00
2010,05,03,16,25,23.80
2010,05,03,16,26,23.70
2010,05,03,16,27,30.40
2010,05,03,16,28,25.40
2010,05,03,16,29,24.10
2010,05,03,16,30,22.90
2010,05,03,16,31,13.60
2010,05,03,16,32,25.30
2010,05,03,16,33,24.00
2010,05,03,16,34,31.30
2010,05,03,16,35,31.10
2010,05,03,16,36,30.10
2010,05,03,16,37,21.10
2010,05,03,16,38,31.00
2010,05,03,16,39,27.60
2010,05,03,16,40,29.00
2010,05,03,16,41,17.10
2010,05,03,16,42,29.10
2010,05,03,16,43,30.70
2010,05,03,16,44,30.20
2010,05,03,16,45,21.60
2010,05,03,16,46,21.20
2010,05,03,16,47,15.00
2010,05,03,16,48,17.20
2010,05,03,16,49,29.50
2010,05,03,16,50,20.60
2010,05,03,16,51,17.40
2010,05,03,16,52,26.30
2010,05,03,16,53,22.50
2010,05,03,16,54,19.50
2010,05,03,18,30,24.30
2010,05,03,18,31,18.20
2010,05,03,18,32,26.80
2010,05,03,18,34,21.60
2010,05,03,18,35,30.10
2010,05,03,18,36,25.20
2010,05,03,18,37,19.30
2010,05,03,18,38,14.10
2010,05,03,18,39,21.20
2010,05,03,18,40,19.50
2010,05,03,18,41,8.10
2010,05,03,18,42,16.10
2010,05,03,18,43,16.80
2010,05,03,18,44,19.30
2010,05,03,18,45,32.00
2010,05,03,18,46,19.10
2010,05,03,18,47,17.80
2010,05,03,18,48,16.50
2010,05,03,18,49,23.60
2010,05,03,18,50,15.90
2010,05,03,18,51,20.30
2010,05,03,18,52,13.10
2010,05,03,18,53,18.30
2010,05,03,18,54,17.90
2010,05,03,18,55,17.20
2010,05,03,18,56,26.10
2010,05,03,18,57,22.60
2010,05,03,18,58,32.00
2010,05,03,18,59,32.00
2010,05,03,19,00,23.00
2010,05,03,19,01,13.00